TimeCET,TemperatureF,Dew PointF,Humidity,Sea Level PressureIn,VisibilityMPH,Wind Direction,Wind SpeedMPH,Gust SpeedMPH,PrecipitationIn,Events,Conditions,WindDirDegrees,DateUTC
12:15 AM,55.4,55.4,100,29.83,5.0,NE,5.8,-,N/A,,Mostly Cloudy,50,2012-11-18 23:15:00
12:45 AM,55.4,55.4,100,29.83,5.0,ENE,9.2,-,N/A,,Mostly Cloudy,60,2012-11-18 23:45:00
1:15 AM,55.4,55.4,100,29.83,6.2,NE,5.8,-,N/A,,Scattered Clouds,50,2012-11-19 00:15:00
1:45 AM,55.4,55.4,100,29.83,6.2,NNE,2.3,-,N/A,,Scattered Clouds,30,2012-11-19 00:45:00
2:15 AM,55.4,55.4,100,29.83,6.2,Calm,Calm,-,N/A,,Scattered Clouds,0,2012-11-19 01:15:00
2:45 AM,55.4,55.4,100,29.83,6.2,NNE,2.3,-,N/A,,Scattered Clouds,30,2012-11-19 01:45:00
3:15 AM,55.4,55.4,100,29.80,6.2,NNE,4.6,-,N/A,,Scattered Clouds,30,2012-11-19 02:15:00
3:45 AM,57.2,55.4,94,29.80,6.2,East,6.9,-,N/A,,Scattered Clouds,100,2012-11-19 02:45:00
4:15 AM,57.2,57.2,100,29.77,4.3,East,5.8,-,N/A,Rain,Light Rain,100,2012-11-19 03:15:00
4:45 AM,57.2,55.4,94,29.77,4.3,North,1.2,-,N/A,Rain,Light Rain,10,2012-11-19 03:45:00
5:15 AM,57.2,55.4,94,29.77,4.3,North,1.2,-,N/A,Rain,Light Rain,360,2012-11-19 04:15:00
5:45 AM,55.4,55.4,100,29.77,5.0,WNW,1.2,-,N/A,Rain,Light Rain,300,2012-11-19 04:45:00
6:15 AM,55.4,55.4,100,29.80,5.0,Calm,Calm,-,N/A,Rain,Light Rain,0,2012-11-19 05:15:00
6:45 AM,55.4,55.4,100,29.80,5.0,North,1.2,-,N/A,Rain,Light Rain,10,2012-11-19 05:45:00
7:15 AM,55.4,55.4,100,29.80,5.0,NNE,1.2,-,N/A,Rain,Light Rain,20,2012-11-19 06:15:00
7:45 AM,55.4,55.4,100,29.80,4.3,NNE,3.5,-,N/A,,Scattered Clouds,20,2012-11-19 06:45:00
8:15 AM,55.4,55.4,100,29.80,4.3,NE,5.8,-,N/A,,Scattered Clouds,40,2012-11-19 07:15:00
8:45 AM,55.4,55.4,100,29.80,3.7,NE,3.5,-,N/A,,Scattered Clouds,40,2012-11-19 07:45:00
9:15 AM,57.2,55.4,94,29.83,4.3,NNE,6.9,-,N/A,,Scattered Clouds,30,2012-11-19 08:15:00
9:45 AM,59.0,59.0,100,29.83,5.6,NE,5.8,-,N/A,,Scattered Clouds,40,2012-11-19 08:45:00
10:15 AM,59.0,59.0,100,29.83,6.2,NNE,5.8,-,N/A,,Scattered Clouds,20,2012-11-19 09:15:00
10:45 AM,60.8,59.0,94,29.83,6.2,NNE,6.9,-,N/A,,Scattered Clouds,30,2012-11-19 09:45:00
11:15 AM,60.8,59.0,94,29.83,6.2,NNE,5.8,-,N/A,,Scattered Clouds,20,2012-11-19 10:15:00
11:45 AM,60.8,59.0,94,29.83,6.2,NNE,5.8,-,N/A,,Scattered Clouds,30,2012-11-19 10:45:00
12:15 PM,60.8,60.8,100,29.80,6.2,North,4.6,-,N/A,,Scattered Clouds,360,2012-11-19 11:15:00
12:45 PM,60.8,59.0,94,29.80,6.2,North,5.8,-,N/A,,Scattered Clouds,350,2012-11-19 11:45:00
1:15 PM,62.6,59.0,88,29.80,6.2,North,4.6,-,N/A,,Scattered Clouds,350,2012-11-19 12:15:00
1:45 PM,62.6,59.0,88,29.80,6.2,North,4.6,-,N/A,,Scattered Clouds,10,2012-11-19 12:45:00
2:15 PM,62.6,60.8,94,29.80,6.2,NNE,4.6,-,N/A,,Scattered Clouds,20,2012-11-19 13:15:00
2:45 PM,62.6,57.2,82,29.80,6.2,North,3.5,-,N/A,,Scattered Clouds,360,2012-11-19 13:45:00
3:15 PM,60.8,55.4,82,29.80,6.2,NE,3.5,-,N/A,Rain,Light Rain,50,2012-11-19 14:15:00
3:45 PM,59.0,55.4,88,29.80,4.3,ENE,2.3,-,N/A,Rain,Light Rain Showers,60,2012-11-19 14:45:00
4:15 PM,59.0,55.4,88,29.80,6.2,Calm,Calm,-,N/A,,Scattered Clouds,0,2012-11-19 15:15:00
5:15 PM,59.0,53.6,82,29.80,6.2,ENE,2.3,-,N/A,,Scattered Clouds,70,2012-11-19 16:15:00
5:45 PM,57.2,53.6,88,29.80,6.2,NE,3.5,-,N/A,,Scattered Clouds,50,2012-11-19 16:45:00
6:15 PM,57.2,53.6,88,29.80,6.2,ENE,2.3,-,N/A,,Scattered Clouds,60,2012-11-19 17:15:00
6:45 PM,57.2,53.6,88,29.83,6.2,NNE,2.3,-,N/A,,Scattered Clouds,20,2012-11-19 17:45:00
7:15 PM,57.2,53.6,88,29.83,6.2,NNE,3.5,-,N/A,,Scattered Clouds,30,2012-11-19 18:15:00
7:45 PM,57.2,53.6,88,29.83,6.2,NE,3.5,-,N/A,,Scattered Clouds,50,2012-11-19 18:45:00
8:15 PM,57.2,53.6,88,29.83,6.2,West,2.3,-,N/A,,Scattered Clouds,280,2012-11-19 19:15:00
8:45 PM,57.2,53.6,88,29.83,6.2,North,2.3,-,N/A,,Scattered Clouds,10,2012-11-19 19:45:00
9:15 PM,57.2,53.6,88,29.83,6.2,NE,3.5,-,N/A,,Scattered Clouds,50,2012-11-19 20:15:00
9:45 PM,57.2,51.8,82,29.83,6.2,NE,2.3,-,N/A,,Scattered Clouds,40,2012-11-19 20:45:00
10:15 PM,55.4,51.8,88,29.83,6.2,NNE,3.5,-,N/A,,Scattered Clouds,30,2012-11-19 21:15:00
10:45 PM,55.4,51.8,88,29.83,6.2,NNE,3.5,-,N/A,,Scattered Clouds,30,2012-11-19 21:45:00
11:15 PM,55.4,51.8,88,29.83,6.2,North,3.5,-,N/A,,Mostly Cloudy,10,2012-11-19 22:15:00
11:45 PM,55.4,51.8,88,29.83,6.2,NE,2.3,-,N/A,,Mostly Cloudy,40,2012-11-19 22:45:00